Hourly Weather Potosi

Today, 13 July, Monday

Time Temperature Precipitation Wind Pressure Humidity
00:00 +3°C° 0 mm 1 mps 464 mmHg 19%
01:00 +2°C° 0 mm 1 mps 463 mmHg 20%
02:00 +2°C° 0 mm 1 mps 463 mmHg 20%
03:00 +1°C° 0 mm 1 mps 462 mmHg 19%
04:00 +1°C° 0 mm 1 mps 462 mmHg 18%
05:00 +1°C° 0 mm 1 mps 462 mmHg 18%
06:00 +2°C° 0 mm 1 mps 463 mmHg 17%
07:00 +3°C° 0 mm 1 mps 464 mmHg 17%
08:00 +4°C° 0 mm 1 mps 465 mmHg 17%
09:00 +6°C° 0 mm 1 mps 467 mmHg 14%
10:00 +9°C° 0 mm 1 mps 469 mmHg 10%
11:00 +11°C° 0 mm 1 mps 470 mmHg 7%
12:00 +12°C° 0 mm 1 mps 470 mmHg 7%
13:00 +12°C° 0 mm 1 mps 470 mmHg 6%
14:00 +13°C° 0 mm 1 mps 470 mmHg 6%
15:00 +13°C° 0 mm 1 mps 470 mmHg 7%
16:00 +13°C° 0 mm 2 mps 470 mmHg 8%
17:00 +13°C° 0 mm 2 mps 470 mmHg 8%
18:00 +9°C° 0 mm 2 mps 468 mmHg 13%
19:00 +8°C° 0 mm 1 mps 467 mmHg 18%
20:00 +6°C° 0 mm 1 mps 466 mmHg 23%
21:00 +5°C° 0 mm 1 mps 466 mmHg 26%
22:00 +5°C° 0 mm 1 mps 466 mmHg 29%
23:00 +4°C° 0 mm 1 mps 466 mmHg 32%

Tomorrow, 14 July, Tuesday

Time Temperature Precipitation Wind Pressure Humidity
00:00 +3°C° 0 mm 1 mps 465 mmHg 37%
01:00 +3°C° 0 mm 1 mps 465 mmHg 42%
02:00 +2°C° 0 mm 1 mps 464 mmHg 46%
03:00 +2°C° 0 mm 1 mps 464 mmHg 50%
04:00 +1°C° 0 mm 1 mps 463 mmHg 55%
05:00 +1°C° 0 mm 1 mps 463 mmHg 59%
06:00 +2°C° 0 mm 1 mps 464 mmHg 55%
07:00 +2°C° 0 mm 1 mps 465 mmHg 51%
08:00 +3°C° 0 mm 1 mps 466 mmHg 47%
09:00 +5°C° 0 mm 1 mps 467 mmHg 38%
10:00 +6°C° 0 mm 2 mps 469 mmHg 29%
11:00 +9°C° 0 mm 2 mps 470 mmHg 20%
12:00 +10°C° 0 mm 3 mps 470 mmHg 18%
13:00 +11°C° 0 mm 3 mps 470 mmHg 15%
14:00 +12°C° 0 mm 4 mps 470 mmHg 13%
15:00 +11°C° 0 mm 4 mps 470 mmHg 16%
16:00 +10°C° 0 mm 5 mps 469 mmHg 19%
17:00 +9°C° 0 mm 5 mps 468 mmHg 22%
18:00 +8°C° 0 mm 4 mps 468 mmHg 27%
19:00 +7°C° 0 mm 3 mps 467 mmHg 31%
20:00 +5°C° 0 mm 2 mps 466 mmHg 35%
21:00 +4°C° 0 mm 2 mps 466 mmHg 36%
22:00 +4°C° 0 mm 2 mps 465 mmHg 37%
23:00 +3°C° 0 mm 2 mps 465 mmHg 38%

Day after tomorrow, 15 July, Wednesday

Time Temperature Precipitation Wind Pressure Humidity
00:00 +2°C° 0 mm 2 mps 465 mmHg 35%
01:00 +3°C° 0 mm 1 mps 464 mmHg 33%
02:00 +2°C° 0 mm 1 mps 463 mmHg 31%
03:00 +1°C° 0 mm 1 mps 463 mmHg 30%
04:00 -1°C° 0 mm 2 mps 462 mmHg 29%
05:00 -2°C° 0 mm 2 mps 462 mmHg 27%
06:00 -1°C° 0 mm 2 mps 463 mmHg 26%
07:00 +1°C° 0 mm 2 mps 464 mmHg 24%
08:00 +2°C° 0 mm 2 mps 465 mmHg 22%
09:00 +5°C° 0 mm 2 mps 467 mmHg 18%
10:00 +7°C° 0 mm 2 mps 468 mmHg 14%
11:00 +10°C° 0 mm 2 mps 470 mmHg 9%
12:00 +11°C° 0 mm 3 mps 470 mmHg 9%
13:00 +12°C° 0 mm 3 mps 470 mmHg 8%
14:00 +13°C° 0 mm 3 mps 470 mmHg 8%
15:00 +13°C° 0 mm 3 mps 470 mmHg 9%
16:00 +12°C° 0 mm 3 mps 469 mmHg 10%
17:00 +12°C° 0 mm 3 mps 469 mmHg 12%
18:00 +10°C° 0 mm 3 mps 468 mmHg 15%
19:00 +8°C° 0 mm 2 mps 467 mmHg 18%
20:00 +6°C° 0 mm 2 mps 466 mmHg 21%
21:00 +5°C° 0 mm 2 mps 465 mmHg 21%
22:00 +4°C° 0 mm 2 mps 465 mmHg 20%
23:00 +3°C° 0 mm 2 mps 465 mmHg 20%

16 July, Thursday

Time Temperature Precipitation Wind Pressure Humidity
00:00 +3°C° 0 mm 2 mps 464 mmHg 21%
01:00 +2°C° 0 mm 2 mps 464 mmHg 22%
02:00 +3°C° 0 mm 1 mps 464 mmHg 22%
03:00 +1°C° 0 mm 2 mps 463 mmHg 22%
04:00 +1°C° 0 mm 2 mps 463 mmHg 22%
05:00 +1°C° 0 mm 2 mps 463 mmHg 22%
06:00 +2°C° 0 mm 2 mps 464 mmHg 22%
07:00 +3°C° 0 mm 2 mps 465 mmHg 22%
08:00 +4°C° 0 mm 2 mps 466 mmHg 23%
09:00 +6°C° 0 mm 2 mps 468 mmHg 19%
10:00 +9°C° 0 mm 1 mps 469 mmHg 16%
11:00 +12°C° 0 mm 1 mps 470 mmHg 12%
12:00 +13°C° 0 mm 2 mps 471 mmHg 11%
13:00 +14°C° 0 mm 2 mps 471 mmHg 10%
14:00 +15°C° 0 mm 2 mps 471 mmHg 10%
15:00 +15°C° 0 mm 2 mps 471 mmHg 11%
16:00 +14°C° 0 mm 2 mps 470 mmHg 12%
17:00 +13°C° 0 mm 3 mps 470 mmHg 13%
18:00 +12°C° 0 mm 2 mps 469 mmHg 19%
19:00 +10°C° 0 mm 1 mps 468 mmHg 26%
20:00 +8°C° 0 mm 1 mps 467 mmHg 32%
21:00 +7°C° 0 mm 1 mps 466 mmHg 33%
22:00 +6°C° 0 mm 1 mps 466 mmHg 33%
23:00 +5°C° 0 mm 1 mps 465 mmHg 34%

17 July, Friday

Time Temperature Precipitation Wind Pressure Humidity
00:00 +5°C° 0 mm 1 mps 465 mmHg 32%
01:00 +4°C° 0 mm 1 mps 464 mmHg 31%
02:00 +3°C° 0 mm 1 mps 464 mmHg 29%
03:00 +3°C° 0 mm 1 mps 463 mmHg 27%
04:00 +3°C° 0 mm 1 mps 463 mmHg 25%
05:00 +2°C° 0 mm 1 mps 463 mmHg 23%
06:00 +3°C° 0 mm 1 mps 464 mmHg 23%
07:00 +5°C° 0 mm 1 mps 465 mmHg 23%
08:00 +6°C° 0 mm 1 mps 466 mmHg 23%
09:00 +8°C° 0 mm 1 mps 468 mmHg 19%
10:00 +11°C° 0 mm 1 mps 469 mmHg 15%
11:00 +13°C° 0 mm 2 mps 471 mmHg 10%
12:00 +14°C° 0 mm 2 mps 471 mmHg 10%
13:00 +15°C° 0 mm 2 mps 471 mmHg 9%
14:00 +16°C° 0 mm 3 mps 471 mmHg 8%
15:00 +16°C° 0 mm 3 mps 471 mmHg 10%
16:00 +14°C° 0 mm 3 mps 470 mmHg 12%
17:00 +14°C° 0 mm 3 mps 469 mmHg 14%
18:00 +13°C° 0 mm 2 mps 468 mmHg 19%
19:00 +10°C° 0 mm 2 mps 467 mmHg 25%
20:00 +9°C° 0 mm 1 mps 466 mmHg 31%
21:00 +8°C° 0 mm 1 mps 466 mmHg 30%
22:00 +7°C° 0 mm 1 mps 465 mmHg 30%
23:00 +6°C° 0 mm 1 mps 465 mmHg 30%

18 July, Saturday

Time Temperature Precipitation Wind Pressure Humidity
00:00 +6°C° 0 mm 1 mps 464 mmHg 28%
01:00 +5°C° 0 mm 1 mps 464 mmHg 27%
02:00 +4°C° 0 mm 1 mps 463 mmHg 25%
03:00 +4°C° 0 mm 1 mps 463 mmHg 24%
04:00 +3°C° 0 mm 1 mps 462 mmHg 24%
05:00 +3°C° 0 mm 1 mps 462 mmHg 23%
06:00 +4°C° 0 mm 1 mps 463 mmHg 23%
07:00 +5°C° 0 mm 1 mps 465 mmHg 23%
08:00 +6°C° 0 mm 1 mps 466 mmHg 23%
09:00 +9°C° 0 mm 1 mps 467 mmHg 19%
10:00 +11°C° 0 mm 1 mps 469 mmHg 14%
11:00 +12°C° 0 mm 0 mps 470 mmHg 9%
12:00 +14°C° 0 mm 1 mps 470 mmHg 9%
13:00 +15°C° 0 mm 1 mps 470 mmHg 8%
14:00 +16°C° 0 mm 2 mps 470 mmHg 8%
15:00 +16°C° 0 mm 2 mps 470 mmHg 9%
16:00 +15°C° 0 mm 2 mps 470 mmHg 10%
17:00 +14°C° 0 mm 3 mps 469 mmHg 11%
18:00 +13°C° 0 mm 2 mps 468 mmHg 18%
19:00 +11°C° 0 mm 1 mps 467 mmHg 26%
20:00 +9°C° 0 mm 1 mps 466 mmHg 33%
21:00 +8°C° 0 mm 1 mps 466 mmHg 36%
22:00 +8°C° 0 mm 1 mps 466 mmHg 39%
23:00 +7°C° 0 mm 1 mps 465 mmHg 42%
Show more